[Iaude] MPEC V206: 2023 VD7 [a=1.30,e=0.48,i=5.2,H=24.3]
    mpec at marsden.cfa.harvard.edu 
    mpec at marsden.cfa.harvard.edu
       
    Sat Nov 11 15:50:36 EST 2023
    
    
  
M.P.E.C. 2023-V206                            Issued 2023 November 11, 20:48 UT
     The Minor Planet Electronic Circulars contain information on unusual
         minor planets, routine data on comets and natural satellites,
         and occasional editorial announcements.  They are published
    on behalf of Division F of the International Astronomical Union by the
          Minor Planet Center, Smithsonian Astrophysical Observatory,
                          Cambridge, MA 02138, U.S.A.
			  
             Prepared using the Tamkin Foundation Computer Network
                              MPC at CFA.HARVARD.EDU
            URL https://www.minorplanetcenter.net/    ISSN 1523-6714
                                    2023 VD7                                    
Observations:
     K23V07D  C2023 11 09.38181123 37 34.756+24 31 23.54         19.30GVEV206F51
     K23V07D  C2023 11 09.39602523 38 01.609+24 29 50.19         19.36GVEV206F51
     K23V07D* C2023 11 11.14125200 23 33.616+21 34 09.84         19.5 GVEV206U68
     K23V07D  C2023 11 11.14459300 23 37.632+21 33 51.72         19.5 GVEV206U68
     K23V07D  C2023 11 11.16241200 23 58.691+21 32 14.68         19.6 GVEV206U68
     K23V07D  C2023 11 11.16575300 24 02.741+21 31 56.26         19.6 GVEV206U68
     K23V07D  C2023 11 11.22959200 25 22.906+21 26 42.02         19.46GVEV206F52
     K23V07D  C2023 11 11.24002600 25 34.985+21 25 46.66         19.47GVEV206F52
     K23V07D  C2023 11 11.25190700 25 43.146+21 24 06.42         19.7 GVEV206U74
     K23V07D  C2023 11 11.25246300 25 49.283+21 24 40.39         19.28GVEV206F52
     K23V07D  C2023 11 11.25444900 25 51.561+21 24 29.83         19.61GVEV206F52
     K23V07D  C2023 11 11.25582700 25 47.668+21 23 45.17         19.7 GVEV206U74
     K23V07D bC2023 11 11.76795400 35 30.95 +20 38 40.9          19.7 GVEV206L01
     K23V07D bC2023 11 11.76943600 35 32.46 +20 38 33.5          19.6 GVEV206L01
     K23V07D bC2023 11 11.77091700 35 34.03 +20 38 25.9          19.8 GVEV206L01
     K23V07D bC2023 11 11.77240000 35 35.54 +20 38 19.2          20.0 GVEV206L01
     K23V07D IC2023 11 11.77388700 35 36.99 +20 38 11.7          20.0 GVEV206L01
Observer details:
F51 Pan-STARRS 1, Haleakala.  Observers J. Bulger, T. Lowe, P. Minguez, A.
    Schultz, I. Smith.  Measurers K. Chambers, T. de Boer, J. Fairlamb, H.
    Gao, M. Huber, C.-C. Lin, E. Magnier, Y. Ramanjooloo, R. Wainscoat, R.
    Weryk.  1.8-m Ritchey-Chretien + CCD.
F52 Pan-STARRS 2, Haleakala.  Observers J. Bulger, T. Lowe, P. Minguez, A.
    Schultz, I. Smith.  Measurers K. Chambers, T. de Boer, J. Fairlamb, H.
    Gao, M. Huber, C.-C. Lin, E. Magnier, Y. Ramanjooloo, R. Wainscoat, R.
    Weryk.  1.8-m Ritchey-Chretien + CCD.
L01 Visnjan Observatory, Tican.  Observer K. Korlevic.  1.0-m f/2.9 reflector
    + CCD.
U68 JPL SynTrack Robotic Telescope, Auberry.  Observers N. Saini, C. Zhai, R.
    Trahan, M. Zhan, M. Shao.  0.28-m Reflector + CCD.
U74 JPL SynTrack Robotic Telescope 2, Auberry.  Observers N. Saini, C. Zhai,
    R. Trahan, M. Zhan, M. Shao.  0.36-m Reflector + CCD.
Orbital elements:
2023 VD7                                                 Earth MOID = 0.0246 AU
Epoch 2023 Sept. 13.0 TT = JDT 2460200.5                Veres                   
M   1.03864              (2000.0)            P               Q                  
n   0.66235217     Peri.   74.61093     +0.66902382     +0.73923295             
a   1.3033971      Node   237.64333     -0.71211213     +0.60784616             
e   0.4778238      Incl.    5.23559     -0.21284605     +0.28992704             
P   1.49           H   24.33          G   0.15           U   8                  
Residuals in seconds of arc
231109 F51  0.1+  0.0     231111 F52  0.2-  0.1+    231111 L01  0.2-  0.0
231109 F51  0.1-  0.0     231111 F52  0.2+  0.1+    231111 L01  0.3-  0.0
231111 U68  0.7-  0.3+    231111 U74  0.3+  0.2-    231111 L01  0.4+  0.3-
231111 U68  0.1-  0.2+    231111 F52  0.0   0.1-    231111 L01  0.3+  0.4+
231111 U68  0.8-  0.4-    231111 F52  0.0   0.0     231111 L01  0.6-  0.2+
231111 U68  0.7+  0.7-    231111 U74  0.3+  0.1+
Ephemeris:
2023 VD7                 a,e,i = 1.30, 0.48, 5                   q = 0.6806
Date    TT    R. A. (2000) Decl.     Delta      r    Elong.  Phase     V
2023 10 12    15 07 28.6 -03 50 48   0.2362  0.8031    30.2   141.3    27.7
...
2023 10 27    16 04 39.6 +03 22 09   0.09490 0.9170    34.1   142.6    26.2
...
2023 11 04    18 58 23.8 +21 56 24   0.04025 0.9820    74.6   103.2    21.1
...
2023 11 10    23 56 12.8 +23 26 48   0.05469 1.0312   137.0    40.9    19.7
2023 11 11    00 20 31.7 +21 48 00   0.06162 1.0394   141.7    36.2    19.8
2023 11 12    00 39 26.5 +20 20 29   0.06908 1.0475   145.2    32.6    20.0
...
2023 11 18    01 37 35.5 +15 02 23   0.1196  1.0963   152.7    24.5    21.1
...
2023 11 26    02 06 32.4 +12 21 28   0.1942  1.1601   150.6    24.7    22.2
...
2023 12 11    02 31 51.9 +11 09 33   0.3493  1.2745   140.7    29.3    23.9
M. P. C. Staff               (C) Copyright 2023 MPC           M.P.E.C. 2023-V206
    
    
More information about the Iaude
mailing list